Location: Milton Keynes
(52.0316°N, 0.7531°W)
Time: 15:02:49
(UTC+00:00)

OTV 5 (USA 277) - Pass Details

Date: 31 January 2019
Orbit: 342 x 346 km, 54.5° (Epoch: 17 February)

Event Time Altitude Azimuth Distance (km) Brightness Sun altitude
Exits shadow 05:44:08 46° 178° (S) 470 ? -18.6°
Maximum altitude 05:44:27 50° 152° (SSE) 449 ? -18.5°
Drops below altitude 10° 05:47:15 10° 75° (ENE) 1,299 ? -18.1°
Sets 05:49:17 0° 70° (ENE) 2,142 ? -17.8°
